Weather History for KANE - June, 2013

Change the Weather History Date:

Thursday, June 27, 2013

  Actual Average Record
Temperature  
Mean Temperature 78 °F -  
Max Temperature 86 °F 77 °F 91 °F (2012)
Min Temperature 69 °F 59 °F 51 °F (2000)
Cooling Degree Days 12    
Growing Degree Days 28 (Base 50)    
Moisture  
Dew Point 62 °F    
Average Humidity 65    
Maximum Humidity 88    
Minimum Humidity 33    
Precipitation  
Precipitation 0.00 in - - ()
Sea Level Pressure  
Sea Level Pressure 29.80 in    
Wind  
Wind Speed 5 mph (West)    
Max Wind Speed 21 mph    
Max Gust Speed 28 mph    
Visibility 10 miles    
Events      
Averages and records for this station are not official NWS values.
T = Trace of Precipitation, MM = Missing Value Source: NWS Daily Summary

Daily Weather History Graph

Daily Weather History Graph

Search for Another Location

Airport or City:

Trip Planner

Search our weather history database for the weather conditions in past years. The results will help you decide how hot, cold, wet, or windy it might be!

Date:

Astronomy

Jun. 27, 2013 Rise Set
Actual Time 5:27 AM CDT 9:04 PM CDT
Civil Twilight 4:50 AM CDT 9:41 PM CDT
Nautical Twilight 4:00 AM CDT 10:31 PM CDT
Astronomical Twilight 2:53 AM CDT 11:37 PM CDT
Moon 11:45 PM CDT (6/27) 10:43 AM CDT (6/27)
Length of Visible Light 16h 51m
Length of Day
15h 36m
Waning Gibbous, 76% of the Moon is Illuminated
Jun 27
Waning Gibbous
Jun 29
Last Quarter
Jul 8
New
Jul 15
First Quarter
Jul 22
Full

Hourly Weather History & Observations

Time (CDT) Temp. Heat Index Dew Point Humidity Pressure Visibility Wind Dir Wind Speed Gust Speed Precip Events Conditions
12:14 AM 75.2 °F - 64.4 °F 69% 29.82 in 10.0 mi WSW 4.6 mph - N/A   Clear
12:33 AM 75.2 °F - 64.4 °F 69% 29.82 in 10.0 mi WSW 3.5 mph - N/A   Clear
12:54 AM 75.2 °F - 64.4 °F 69% 29.82 in 10.0 mi Calm Calm - N/A   Clear
1:13 AM 73.4 °F - 64.4 °F 73% 29.81 in 10.0 mi Calm Calm - N/A   Clear
1:34 AM 71.6 °F - 66.2 °F 83% 29.81 in 10.0 mi Calm Calm - N/A   Clear
1:54 AM 71.6 °F - 66.2 °F 83% 29.81 in 10.0 mi Calm Calm - N/A   Clear
2:13 AM 71.6 °F - 66.2 °F 83% 29.81 in 10.0 mi Calm Calm - N/A   Clear
2:34 AM 69.8 °F - 66.2 °F 88% 29.81 in 10.0 mi Calm Calm - N/A   Mostly Cloudy
2:54 AM 71.6 °F - 66.2 °F 83% 29.80 in 10.0 mi Calm Calm - N/A   Scattered Clouds
3:14 AM 69.8 °F - 66.2 °F 88% 29.81 in 10.0 mi Calm Calm - N/A   Scattered Clouds
3:34 AM 69.8 °F - 66.2 °F 88% 29.81 in 10.0 mi Calm Calm - N/A   Mostly Cloudy
3:54 AM 71.6 °F - 66.2 °F 83% 29.80 in 10.0 mi Calm Calm - N/A   Scattered Clouds
4:14 AM 69.8 °F - 66.2 °F 88% 29.81 in 10.0 mi Calm Calm - N/A   Clear
4:34 AM 71.6 °F - 66.2 °F 83% 29.80 in 10.0 mi SW 4.6 mph - N/A   Clear
4:54 AM 71.6 °F - 66.2 °F 83% 29.80 in 10.0 mi SW 3.5 mph - N/A   Scattered Clouds
5:14 AM 71.6 °F - 66.2 °F 83% 29.81 in 10.0 mi SW 4.6 mph - N/A   Scattered Clouds
5:34 AM 71.6 °F - 66.2 °F 83% 29.81 in 10.0 mi SW 4.6 mph - N/A   Mostly Cloudy
5:54 AM 71.6 °F - 66.2 °F 83% 29.81 in 10.0 mi SW 4.6 mph - N/A   Scattered Clouds
6:14 AM 73.4 °F - 66.2 °F 78% 29.81 in 10.0 mi SW 5.8 mph - N/A   Clear
6:34 AM 73.4 °F - 66.2 °F 78% 29.81 in 10.0 mi WSW 8.1 mph - N/A   Scattered Clouds
6:45 AM 75.2 °F - 66.2 °F 73% 29.81 in 10.0 mi WSW 9.2 mph - N/A   Scattered Clouds
6:54 AM 75.2 °F - 66.2 °F 73% 29.81 in 10.0 mi WSW 10.4 mph - N/A   Scattered Clouds
7:45 AM 75.2 °F - 66.2 °F 73% 29.81 in 10.0 mi West 8.1 mph - N/A   Mostly Cloudy
8:45 AM 78.8 °F - 66.2 °F 65% 29.81 in 10.0 mi West 9.2 mph - N/A   Mostly Cloudy
9:45 AM 80.6 °F 82.7 °F 66.2 °F 61% 29.81 in 10.0 mi West 11.5 mph 17.3 mph N/A   Scattered Clouds
10:45 AM 82.4 °F 83.4 °F 62.6 °F 51% 29.80 in 10.0 mi West 12.7 mph - N/A   Scattered Clouds
11:45 AM 84.2 °F 85.0 °F 62.6 °F 48% 29.80 in 10.0 mi West 16.1 mph - N/A   Scattered Clouds
12:45 PM 84.2 °F 83.0 °F 55.4 °F 37% 29.80 in 10.0 mi West 16.1 mph 20.7 mph N/A   Scattered Clouds
1:45 PM 86.0 °F 84.5 °F 55.4 °F 35% 29.81 in 10.0 mi West 16.1 mph 20.7 mph N/A   Clear
2:45 PM 86.0 °F 84.5 °F 55.4 °F 35% 29.81 in 10.0 mi WNW 20.7 mph 27.6 mph N/A   Clear
4:45 PM 86.0 °F 84.2 °F 53.6 °F 33% 29.81 in 10.0 mi West 20.7 mph 27.6 mph N/A   Partly Cloudy
5:45 PM 84.2 °F 82.8 °F 53.6 °F 35% 29.81 in 10.0 mi WNW 20.7 mph 27.6 mph N/A   Partly Cloudy
6:45 PM 84.2 °F 82.8 °F 53.6 °F 35% 29.80 in 10.0 mi WNW 13.8 mph - N/A   Partly Cloudy
7:45 PM 82.4 °F 81.7 °F 55.4 °F 39% 29.80 in 10.0 mi West 13.8 mph - N/A   Partly Cloudy
8:45 PM 78.8 °F - 59.0 °F 51% 29.79 in 10.0 mi West 5.8 mph - N/A   Partly Cloudy
9:14 PM 78.8 °F - 57.2 °F 47% 29.79 in 10.0 mi West 4.6 mph - N/A   Scattered Clouds
9:34 PM 78.8 °F - 57.2 °F 47% 29.79 in 10.0 mi West 5.8 mph - N/A   Clear
9:45 PM 77.0 °F - 59.0 °F 54% 29.79 in 10.0 mi WSW 4.6 mph - N/A   Partly Cloudy
9:53 PM 77.0 °F - 59.0 °F 54% 29.79 in 10.0 mi West 3.5 mph - N/A   Clear
10:14 PM 73.4 °F - 60.8 °F 65% 29.79 in 10.0 mi West 5.8 mph - N/A   Clear
10:34 PM 73.4 °F - 60.8 °F 65% 29.79 in 10.0 mi West 6.9 mph - N/A   Clear
10:53 PM 73.4 °F - 60.8 °F 65% 29.79 in 10.0 mi West 8.1 mph - N/A   Clear
11:14 PM 73.4 °F - 60.8 °F 65% 29.79 in 10.0 mi West 8.1 mph - N/A   Clear
11:34 PM 75.2 °F - 57.2 °F 53% 29.79 in 10.0 mi WNW 9.2 mph - N/A   Clear
11:53 PM 73.4 °F - 57.2 °F 57% 29.80 in 10.0 mi NNW 8.1 mph - N/A   Clear